Location: Christchurch
(43.5330°S, 172.6330°E)
Time: 03:07:30
(UTC+13:00)

CZ-2C R/B - Pass Details

Date: 24 January 2019
Orbit: 785 x 870 km, 98.3° (Epoch: 22 February)

Event Time Altitude Azimuth Distance (km) Brightness Sun altitude
Exits shadow 21:48:37 - 32° (NNE) 2,722 4.8 -7.7°
Reaches altitude 10° 21:49:18 10° 34° (NE) 2,461 4.5 -7.8°
Maximum altitude 21:54:35 53° 109° (ESE) 1,020 3.0 -8.5°
Drops below altitude 10° 21:59:49 10° 184° (S) 2,435 5.7 -9.3°
Sets 22:02:12 0° 188° (S) 3,362 6.6 -9.6°
